TimeMDT,TemperatureF,Dew PointF,Humidity,Sea Level PressureIn,VisibilityMPH,Wind Direction,Wind SpeedMPH,Gust SpeedMPH,PrecipitationIn,Events,Conditions,WindDirDegrees,DateUTC
12:52 AM,73.0,35.1,25,29.92,10.0,SSE,5.8,-,N/A,,Clear,160,2013-08-23 06:52:00
1:52 AM,73.0,33.1,23,29.91,10.0,East,5.8,-,N/A,,Clear,100,2013-08-23 07:52:00
2:52 AM,72.0,41.0,33,29.92,10.0,NNW,8.1,-,N/A,,Clear,330,2013-08-23 08:52:00
3:52 AM,71.1,39.0,31,29.91,10.0,NNE,6.9,-,N/A,,Clear,20,2013-08-23 09:52:00
4:52 AM,69.1,39.0,33,29.91,10.0,NNE,5.8,-,N/A,,Clear,20,2013-08-23 10:52:00
5:52 AM,69.1,39.0,33,29.91,10.0,North,5.8,-,N/A,,Clear,360,2013-08-23 11:52:00
6:52 AM,66.9,37.9,34,29.94,10.0,North,5.8,-,N/A,,Clear,10,2013-08-23 12:52:00
7:52 AM,70.0,39.9,33,29.96,10.0,NW,3.5,-,N/A,,Clear,320,2013-08-23 13:52:00
8:52 AM,72.0,43.0,35,29.97,10.0,NNW,5.8,-,N/A,,Clear,330,2013-08-23 14:52:00
9:52 AM,75.9,44.1,32,29.97,10.0,Variable,3.5,-,N/A,,Partly Cloudy,0,2013-08-23 15:52:00
10:52 AM,79.0,46.0,31,29.97,10.0,SSW,8.1,-,N/A,,Partly Cloudy,210,2013-08-23 16:52:00
11:52 AM,82.0,48.0,30,29.94,10.0,SW,13.8,-,N/A,,Scattered Clouds,220,2013-08-23 17:52:00
12:52 PM,82.9,46.0,27,29.92,10.0,SSW,4.6,-,N/A,,Scattered Clouds,200,2013-08-23 18:52:00
1:52 PM,80.1,48.9,34,29.91,10.0,South,8.1,-,0.00,Rain,Light Rain,180,2013-08-23 19:52:00
2:47 PM,82.4,46.4,28,30.14,10.0,South,5.8,-,0.00,Thunderstorm,Thunderstorm,190,2013-08-23 20:47:00
2:52 PM,82.9,46.9,28,29.87,10.0,South,9.2,-,0.00,Thunderstorm,Thunderstorm,170,2013-08-23 20:52:00
3:15 PM,84.2,44.6,25,30.13,10.0,South,8.1,-,N/A,,Mostly Cloudy,170,2013-08-23 21:15:00
3:52 PM,86.0,46.0,25,29.84,10.0,ESE,16.1,21.9,N/A,,Mostly Cloudy,120,2013-08-23 21:52:00
4:52 PM,84.9,46.9,27,29.84,10.0,ESE,13.8,-,N/A,,Mostly Cloudy,120,2013-08-23 22:52:00
5:52 PM,82.9,46.9,28,29.85,10.0,SE,23.0,32.2,N/A,,Mostly Cloudy,130,2013-08-23 23:52:00
6:52 PM,81.0,46.0,29,29.85,10.0,SSE,15.0,-,N/A,,Mostly Cloudy,150,2013-08-24 00:52:00
7:52 PM,79.0,48.0,34,29.86,10.0,SW,10.4,-,N/A,,Mostly Cloudy,220,2013-08-24 01:52:00
8:52 PM,77.0,46.9,34,29.89,10.0,South,4.6,-,N/A,,Mostly Cloudy,190,2013-08-24 02:52:00
9:52 PM,73.9,46.9,38,29.91,10.0,SSE,4.6,-,N/A,,Mostly Cloudy,160,2013-08-24 03:52:00
10:52 PM,75.0,44.1,33,29.91,10.0,South,3.5,-,N/A,,Mostly Cloudy,180,2013-08-24 04:52:00
11:52 PM,73.9,46.0,37,29.92,10.0,SSW,3.5,-,N/A,,Mostly Cloudy,210,2013-08-24 05:52:00